Dewpoint
53 41 41 35 17 9 12 16 23 32 37 42 41 43 42 45 41 42 59 55 60 64 64 67 71 71 72 72 72 73 73 73 73 72 73 72 72 72 72 72 72 71 69 69 68 68 68 68 69
40 40 35 28 14 1 14 24 27 32 44 46 46 49 44 47 53 58 56 60 63 65 66 64 71 71 72 72 72 72 72 72 72 72 72 72 72 72 71 71 71 71 69 69 68 67 68 68 69
42 35 29 25 17 7 16 24 27 42 47 47 46 51 48 50 56 59 62 60 63 66 66 67 71 70 71 72 72 72 72 72 72 72 72 72 72 71 71 71 71 71 69 69 69 67 66 66 66
39 34 30 22 14 23 23 25 31 43 45 47 47 45 54 60 57 63 62 60 63 65 67 70 70 70 71 72 72 72 72 71 71 72 72 72 71 71 71 71 71 70 69 69 69 68 66 66 66
37 31 22 20 22 24 25 25 34 40 43 45 47 47 52 62 64 65 64 61 63 64 68 70 70 70 71 71 71 71 71 71 71 71 72 72 71 70 70 70 70 70 69 69 69 68 67 66 66
30 31 19 16 22 24 25 27 35 40 44 45 45 48 53 63 63 65 65 64 64 65 69 70 71 71 71 71 70 70 70 70 70 70 71 71 71 70 70 70 69 69 69 69 69 68 67 67 66
27 23 20 22 24 24 27 28 34 41 39 45 46 42 56 59 63 65 66 66 66 68 69 70 70 70 70 69 69 68 69 69 69 70 70 70 69 69 69 69 69 68 68 68 68 68 67 67 67
31 26 19 24 22 25 28 27 28 32 33 46 45 38 48 58 63 64 66 67 67 69 70 70 70 70 70 70 68 68 68 68 68 69 69 68 68 68 68 68 68 68 68 67 67 67 67 67 67
34 22 15 18 24 27 29 28 29 30 36 43 45 44 52 61 62 62 63 65 66 67 69 70 70 70 70 69 69 69 69 69 69 68 68 67 65 65 65 66 68 68 68 67 67 67 67 66 66
30 23 17 24 27 28 29 29 28 27 35 37 48 56 59 61 61 60 60 61 63 66 67 69 70 70 70 67 70 70 69 68 68 67 69 66 68 66 64 65 67 67 68 67 67 67 66 65 61
29 23 26 28 28 29 28 28 28 26 28 31 34 51 59 60 60 60 59 60 62 65 67 67 68 69 69 67 68 67 68 69 69 69 68 68 67 67 65 64 63 64 66 62 64 63 62 62 64
26 27 26 25 30 29 28 29 28 28 26 28 29 41 56 58 58 58 59 60 62 65 66 67 67 68 68 67 67 67 67 68 68 67 69 68 67 66 66 63 65 65 62 63 62 62 65 65 65
28 26 27 27 29 29 29 28 28 28 29 29 32 41 53 55 56 57 59 59 62 65 66 66 67 67 67 68 67 67 67 67 67 67 67 67 66 67 66 66 65 65 65 64 64 64 63 64 65
29 27 27 27 27 27 28 24 27 28 30 31 34 40 48 52 53 56 58 58 61 64 66 67 67 67 67 66 67 67 68 66 66 65 66 68 68 68 66 67 66 66 66 65 66 66 66 65 66
29 28 26 28 28 27 28 25 25 26 29 31 33 36 43 48 51 55 57 57 61 63 66 67 68 68 69 68 68 66 65 64 65 67 70 69 69 69 69 68 67 66 66 67 66 67 65 64 64
29 30 24 27 29 29 28 20 23 27 27 29 30 33 39 46 51 54 56 57 60 63 66 67 66 67 68 67 66 65 65 69 68 69 68 69 69 69 68 66 65 65 65 64 63 61 58 59 57
28 20 23 23 28 27 28 22 25 30 30 30 29 30 34 41 53 54 57 58 59 63 66 67 68 67 68 67 68 69 69 68 67 66 65 65 64 64 61 59 58 58 56 56 56 54 54 50 49
20 26 23 24 26 28 26 25 25 29 30 31 32 34 38 41 46 54 58 60 61 64 66 67 67 68 68 69 69 67 65 61 60 61 61 61 58 57 54 54 55 54 54 54 53 55 53 52 51
22 23 22 21 26 28 27 27 27 27 29 31 31 33 36 40 45 53 60 61 62 66 66 67 67 67 67 66 65 62 56 55 54 54 55 52 52 53 52 49 51 53 52 55 55 52 51 49 51
28 27 25 24 24 29 29 27 27 29 30 32 32 32 33 35 42 53 59 60 62 65 66 67 67 67 67 65 63 62 58 54 51 50 52 52 52 54 51 52 51 52 51 52 52 50 45 42 43
30 28 26 25 25 27 30 28 26 27 29 31 33 34 34 34 41 51 56 59 61 63 65 66 67 67 66 66 61 56 54 50 46 47 47 50 51 52 51 49 49 48 46 44 45 43 42 37 37
25 24 26 28 27 22 23 21 22 22 25 30 33 35 35 35 41 48 54 57 61 62 65 66 67 67 63 61 56 53 48 44 43 45 46 48 50 50 49 48 46 46 43 42 40 37 41 40 34
26 25 27 29 28 27 24 22 24 23 23 26 31 35 37 39 43 47 52 55 59 62 64 64 65 60 56 54 55 50 48 45 44 45 49 49 50 48 44 44 44 44 41 41 41 41 41 37 38
27 29 31 32 30 25 23 23 17 17 23 27 28 32 37 41 46 47 51 54 58 61 60 55 55 51 51 51 51 50 47 44 42 45 45 45 43 44 44 41 45 44 44 43 43 45 44 43 43
30 29 25 23 24 21 14 14 19 21 21 24 28 30 36 40 46 49 50 53 56 58 57 51 48 46 48 50 48 46 46 44 45 45 41 41 40 41 45 45 47 45 46 46 47 46 46 45 44
27 28 29 20 15 14 13 15 16 23 27 27 31 32 34 40 46 49 51 53 54 55 54 48 43 43 44 45 44 44 44 42 42 40 40 38 39 41 46 45 45 44 44 44 45 44 43 45 45
28 29 27 26 23 22 17 15 20 30 31 32 32 34 36 40 45 48 51 52 54 52 48 45 43 42 42 43 44 44 44 43 41 43 43 41 42 38 43 43 43 43 44 44 45 43 44 45 46
29 31 28 28 23 16 11 13 13 23 30 33 34 34 36 41 46 48 50 52 51 49 43 45 43 41 42 44 43 42 42 42 42 42 40 41 43 42 43 43 42 41 41 42 43 42 42 43 43
26 28 29 29 30 22 16 14 19 19 30 31 33 36 38 42 46 47 49 50 49 47 43 42 40 37 39 40 40 41 40 39 40 40 42 42 42 40 40 40 40 40 40 40 41 41 41 41 42
27 28 33 33 29 32 29 22 25 25 28 34 36 38 40 43 46 46 48 48 47 44 42 40 39 37 39 37 38 39 39 40 40 40 41 42 40 41 40 40 38 38 38 40 40 40 40 40 40
Lifted_Index
8 8 7 6 5 3 3 3 3 1 0 -1 -1 -2 -2 -2 -2 -2 -2 -2 -3 -4 -4 -4 -4 -4 -5 -5 -6 -6 -6 -6 -6 -6 -5 -5 -5 -5 -5 -5 -5 -4 -4 -4 -3 -2 -2 -2 -2
8 7 7 6 4 3 3 3 3 1 -1 -1 -2 -2 -2 -2 -3 -3 -3 -2 -3 -4 -4 -4 -4 -4 -4 -5 -5 -6 -6 -6 -6 -5 -5 -5 -5 -5 -5 -5 -4 -4 -4 -4 -3 -2 -2 -2 -1
7 7 6 5 4 3 3 4 3 1 -1 -2 -2 -2 -3 -3 -4 -4 -3 -3 -3 -4 -5 -4 -4 -4 -4 -5 -5 -5 -5 -5 -5 -5 -5 -5 -5 -5 -4 -4 -4 -4 -4 -4 -3 -2 -1 -1 -0
6 6 6 5 4 4 4 4 2 0 -1 -2 -2 -2 -3 -4 -5 -5 -4 -3 -4 -5 -5 -4 -4 -4 -4 -5 -5 -5 -5 -5 -4 -5 -5 -5 -4 -4 -4 -4 -4 -3 -3 -3 -3 -2 -1 -0 0
6 5 5 4 4 5 4 4 2 0 -1 -1 -2 -3 -4 -5 -5 -5 -5 -4 -4 -5 -5 -5 -4 -4 -4 -5 -5 -4 -4 -4 -4 -4 -4 -4 -4 -3 -3 -3 -3 -2 -2 -2 -2 -2 -1 -0 0
5 5 4 4 4 5 4 4 2 0 -1 -1 -2 -3 -4 -5 -5 -5 -5 -5 -5 -5 -5 -5 -5 -4 -4 -4 -4 -4 -3 -3 -3 -3 -4 -4 -3 -3 -2 -2 -2 -2 -1 -1 -1 -1 -0 -0 0
5 5 4 4 4 4 4 4 2 1 0 -1 -1 -2 -4 -5 -5 -5 -5 -5 -5 -5 -6 -6 -5 -5 -4 -4 -3 -3 -3 -3 -3 -3 -3 -3 -2 -2 -1 -1 -1 -1 -1 -1 -0 -0 -0 0 0
6 5 5 4 4 4 4 4 3 2 1 -0 -1 -2 -3 -5 -5 -5 -5 -5 -5 -5 -6 -6 -6 -5 -5 -4 -3 -3 -3 -3 -2 -2 -2 -2 -1 -1 -0 -0 -0 -0 -0 -0 0 0 0 0 0
6 5 5 4 4 4 4 4 3 3 1 -0 -1 -2 -4 -5 -5 -5 -5 -5 -5 -5 -5 -6 -6 -6 -5 -5 -4 -4 -3 -3 -3 -2 -2 -2 -1 -1 -0 0 0 -0 -0 0 0 1 1 1 1
5 5 5 5 5 5 4 4 4 3 2 1 -1 -3 -5 -6 -6 -5 -5 -5 -5 -5 -5 -5 -5 -6 -5 -5 -5 -4 -4 -4 -4 -3 -3 -2 -2 -2 -1 0 0 0 0 0 0 0 1 0 0
5 5 5 5 5 5 5 4 4 3 3 2 0 -2 -4 -6 -6 -6 -5 -5 -5 -5 -4 -4 -4 -4 -4 -4 -4 -4 -4 -4 -4 -4 -4 -3 -3 -2 -1 -1 -0 -0 -0 -0 -0 -0 -0 -0 -1
5 5 5 5 5 5 5 5 4 4 3 3 2 -0 -3 -5 -6 -6 -6 -6 -6 -5 -4 -4 -3 -4 -4 -4 -3 -3 -3 -4 -4 -4 -4 -3 -3 -2 -2 -1 -1 -1 -1 -1 -1 -1 -1 -1 -1
5 5 5 5 5 5 5 5 4 4 4 4 3 1 -2 -4 -5 -5 -6 -6 -6 -6 -5 -4 -3 -3 -3 -3 -3 -3 -3 -3 -3 -3 -3 -3 -3 -3 -2 -2 -2 -2 -2 -2 -2 -2 -2 -2 -2
6 5 5 5 5 5 5 5 4 4 4 4 3 2 -1 -3 -4 -5 -5 -6 -6 -6 -5 -4 -4 -3 -3 -3 -3 -3 -3 -3 -3 -3 -3 -3 -3 -3 -3 -2 -2 -2 -2 -2 -2 -2 -2 -2 -2
6 5 5 5 5 4 4 4 4 4 4 4 3 2 1 -1 -3 -4 -5 -5 -6 -6 -6 -5 -4 -4 -4 -3 -3 -3 -3 -3 -3 -3 -3 -3 -3 -3 -3 -2 -2 -2 -2 -2 -1 -1 -1 -1 -0
5 5 4 4 4 4 4 3 3 4 4 4 3 3 2 -0 -2 -3 -4 -5 -5 -6 -6 -5 -5 -4 -4 -4 -4 -3 -3 -3 -3 -3 -3 -3 -3 -2 -2 -1 -1 -0 0 0 1 1 2 2 2
4 3 3 4 4 4 4 4 3 4 4 4 3 3 2 1 -1 -3 -3 -4 -5 -5 -6 -5 -5 -5 -5 -4 -4 -4 -4 -3 -3 -2 -2 -2 -1 -0 1 1 2 3 3 3 4 4 4 5 5
3 3 3 3 4 4 4 4 4 4 4 4 3 3 2 1 -0 -2 -3 -4 -5 -5 -6 -6 -5 -5 -5 -4 -4 -3 -3 -2 -2 -1 -1 1 2 3 4 5 5 5 5 5 5 6 6 6 7
4 3 4 4 4 4 4 4 4 4 4 4 3 3 3 2 1 -1 -3 -3 -4 -5 -5 -5 -5 -5 -4 -4 -3 -3 -2 -2 -1 0 2 4 5 6 6 7 6 6 6 6 6 7 8 8 8
4 4 4 4 4 4 4 4 4 4 4 4 3 3 3 3 2 -0 -2 -3 -3 -4 -5 -5 -5 -5 -4 -3 -3 -3 -2 -1 -0 2 5 6 7 7 7 8 7 8 8 8 9 10 10 11 11
4 4 4 4 4 4 4 4 4 4 4 4 3 3 3 3 2 0 -1 -2 -3 -3 -4 -5 -5 -5 -4 -3 -3 -2 -2 -1 1 4 7 8 8 8 8 8 9 9 10 11 12 12 13 13 13
4 4 4 4 4 4 4 4 4 5 4 4 3 2 2 3 2 1 -1 -2 -2 -3 -4 -4 -5 -4 -4 -3 -3 -2 -1 -0 2 6 8 8 8 9 9 10 10 11 12 13 13 14 14 14 15
4 4 4 4 4 3 3 4 4 5 5 4 3 2 2 2 2 1 -0 -1 -2 -2 -2 -3 -4 -4 -4 -4 -3 -2 -1 1 4 8 9 9 9 10 10 11 12 12 13 14 14 14 14 14 14
4 4 3 3 3 3 3 4 4 5 5 4 3 2 2 2 2 1 0 -1 -1 -1 -1 -3 -4 -5 -4 -4 -3 -1 1 3 7 9 10 10 10 11 11 12 12 13 13 13 13 13 14 14 14
4 4 2 2 1 2 3 3 4 4 5 5 4 3 2 2 2 1 1 0 0 0 -1 -2 -4 -4 -4 -3 -1 2 4 7 9 10 11 11 12 12 12 12 13 13 13 13 13 13 13 13 13
4 3 2 1 1 1 2 3 4 5 5 5 4 3 2 2 2 1 1 1 1 1 -0 -2 -3 -3 -3 -1 2 6 8 10 11 11 12 12 12 13 13 13 13 13 13 13 13 13 13 13 12
4 4 3 2 1 1 2 3 4 5 5 4 4 3 2 2 2 2 2 2 2 2 0 -1 -2 -2 -0 2 6 9 11 11 12 12 12 13 13 14 14 14 14 14 14 14 14 13 13 13 13
4 4 3 3 1 1 2 3 4 4 4 4 4 3 2 2 2 2 3 3 3 2 1 0 -0 0 2 6 9 11 12 12 13 13 13 14 14 14 15 15 15 15 15 14 14 14 13 13 13
4 4 3 2 2 1 1 2 3 3 3 3 4 3 2 2 2 3 3 4 4 3 2 1 1 3 5 9 11 12 12 13 14 14 14 14 15 15 15 15 16 16 15 15 15 14 14 14 13
4 4 3 2 2 2 1 2 3 3 3 3 3 3 2 2 2 3 3 4 4 3 2 2 3 5 8 10 12 12 13 14 14 14 14 15 15 15 16 16 16 16 16 15 15 15 14 14 13